This is the latest recevied weather packets stored in our database for station/object GW1542. If no packets are shown the sender has not sent any weather packets the latest 10 day(s).
| Time | Temp. | Humidity | Pressure | Rain* | Wind** | Luminosity | Snow |
|---|---|---|---|---|---|---|---|
| 1778156868 | 6.11° C | 94% | 1014.5 hPa | 1.27 mm | - | - | - |
| 1778156487 | 6.11° C | 94% | 1014.9 hPa | 1.27 mm | - | - | - |
| 1778153606 | 6.11° C | 95% | 1013.8 hPa | 1.27 mm | - | - | - |
| 1778152513 | 6.11° C | 96% | 1013.8 hPa | 1.27 mm | - | - | - |
| 1778148212 | 6.67° C | 99% | 1013.5 hPa | 1.02 mm | - | - | - |
| 1778146424 | 6.67° C | 99% | 1013.2 hPa | 1.02 mm | - | - | - |
| 1778145310 | 6.67° C | 99% | 1013.2 hPa | 1.02 mm | - | - | - |
| 1778143165 | 6.67° C | 99% | 1013.5 hPa | 0.76 mm | - | - | - |
| 1778141017 | 6.67° C | 99% | 1013.2 hPa | 0.76 mm | - | - | - |
| 1778137390 | 6.67° C | 98% | 1013.5 hPa | 0.76 mm | - | - | - |
| 1778134169 | 6.67° C | 96% | 1013.8 hPa | 0.51 mm | - | - | - |
| 1778131308 | 7.22° C | 95% | 1014.5 hPa | 0.51 mm | - | - | - |
| 1778130222 | 7.78° C | 95% | 1014.2 hPa | 0.25 mm | - | - | - |
| 1778125518 | 8.89° C | 97% | 1013.8 hPa | 20.83 mm | - | - | - |
| 1778120141 | 10° C | 97% | 1013.2 hPa | 20.32 mm | - | - | - |
| 1778117970 | 10° C | 97% | 1013.8 hPa | 20.32 mm | - | - | - |
| 1778112948 | 10.56° C | 96% | 1012.8 hPa | 20.07 mm | - | - | - |
| 1778111494 | 10.56° C | 96% | 1013.5 hPa | 20.07 mm | - | - | - |
| 1778106442 | 11.11° C | 95% | 1012.8 hPa | 19.3 mm | - | - | - |
| 1778105715 | 11.67° C | 94% | 1012.8 hPa | 19.3 mm | - | - | - |
| 1778105358 | 11.67° C | 93% | 1012.8 hPa | 19.3 mm | - | - | - |
| 1778105023 | 11.67° C | 94% | 1012.8 hPa | 19.3 mm | - | - | - |
| 1778104659 | 11.67° C | 94% | 1012.5 hPa | 19.3 mm | - | - | - |
| 1778102833 | 11.67° C | 95% | 1012.5 hPa | 19.05 mm | - | - | - |
| 1778100331 | 12.78° C | 94% | 1011.8 hPa | 18.8 mm | - | - | - |
* Rain since midnight (hover to see other rain measurements)
** Current wind speed in m/s (hover to see current wind gust speed)